Weather in Sovetskoye

Russia / Republic of Dagestan     41°43′36″N   48°19′30″E
temp.,
°C
wind,
m/s
gust,
m/s
humid.,
%
clouds,
%
prec.,
mm/h
press.,
hPa
HPBL,
m
29 january, sat
sat2900:00−1sw11804 0.0 102319
03:00−1wsw11744 0.0 102314
06:00−1wsw11715 0.0 102311
09:00+1s11581 0.0 1023198
12:00+3ese22541 0.0 1021669
15:00+4ene216310 0.0 1020750
18:00+1w11825 0.0 102111
21:000w21720 0.0 102112
30 january, sun
sun3000:000wsw11675 0.0 102011
03:00+1wsw225894 0.0 102012
06:00+1wsw1153100 0.0 101912
09:00+4wsw1143100 0.0 101961
12:00+5ne2141100 0.0 1018474
15:00+5ene115499 0.0 1016542
18:00+1sse0186100 0.0 101610
21:00+1wsw1180100 0.0 101610
31 january, mon
mon3100:00+1sw1170100 0.0 101410
03:000sw11655 0.0 101310
06:000sw11615 0.0 101210
09:00+3nne11501 0.0 1012145
12:00+5ne11480 0.0 1012481
15:00+5ene10480 0.0 1012575
18:00+2sse11730 0.0 101410
21:00+2ssw11695 0.0 101310
1 february, tue
tue100:00+2sw1164100 0.0 101510
03:00+2wsw0059100 0.0 101610
06:00+1nw1172100 0.0 101710
09:00+3nne1170100 0.0 1018156
12:00+4ne217147 0.0 1018710
15:00+5ne216774 0.0 1018790
18:00+2sse11856 0.0 101911
21:00+1s11821 0.0 101910
2 february, wed
wed200:00+1sse11810 0.0 101810
03:00+1sse1180100 0.0 101711
06:00+1s117931 0.0 101810
09:00+4ese11645 0.0 1018124
12:00+6e21581 0.0 1016411
15:00+8e1156100 0.0 1014377
18:00+4se117871 0.0 101510
21:00+4s1174100 0.0 101411